F4GCF-13 Weather Reports


time (UTC)temp
F
wind
direction
speed
knots
gust
knots
rain 1hr
in
rain 24hr
in
rain mn
in
humidity
%
barometer
mb
20260506105536 58 273 11.3 11.3 0.05 0.08 0.05 83 1014.0
20260506103539 57 260 7.0 6.1 0.05 0.08 0.05 81 1014.0
20260506101537 59 253 7.8 11.3 0.00 0.03 0.00 78 1014.0
20260506100536 61 248 6.1 11.3 0.00 0.03 0.00 80 1014.0
20260506100038 60 248 7.0 7.8 0.00 0.03 0.00 80 1014.0
20260506095537 59 249 6.1 7.8 0.00 0.03 0.00 81 1014.0
20260506094040 59 269 6.1 8.7 0.00 0.03 0.00 82 1014.0
20260506093543 58 248 7.0 8.7 0.00 0.03 0.00 82 1014.0
20260506092536 58 248 6.1 8.7 0.00 0.03 0.00 82 1014.0
20260506091038 58 248 8.7 9.6 0.00 0.03 0.00 81 1014.0
20260506090539 59 257 7.8 11.3 0.00 0.03 0.00 81 1014.0
20260506085542 59 263 7.0 8.7 0.00 0.03 0.00 82 1014.0
20260506085036 59 255 7.0 10.4 0.00 0.03 0.00 82 1014.0
20260506084541 59 247 5.2 8.7 0.00 0.03 0.00 83 1014.0
20260506083538 59 259 8.7 9.6 0.00 0.03 0.00 84 1013.0
20260506083038 58 255 6.1 5.2 0.00 0.03 0.00 84 1013.0
20260506082038 58 248 7.0 8.7 0.00 0.03 0.00 84 1014.0
20260506081040 59 251 7.8 11.3 0.00 0.03 0.00 87 1014.0
20260506080610 58 244 7.8 7.0 0.00 0.03 0.00 87 1014.0
20260506080535 58 244 7.8 7.0 0.00 0.03 0.00 87 1014.0
20260506072540 55 256 6.1 8.7 0.00 0.03 0.00 91 1014.0
20260506072038 55 248 7.0 13.0 0.00 0.03 0.00 92 1014.0
20260506071539 55 249 6.1 8.7 0.00 0.03 0.00 92 1014.0
20260506071037 55 249 5.2 8.7 0.00 0.03 0.00 92 1014.0
20260506070535 54 251 3.5 7.0 0.00 0.03 0.00 93 1014.0
20260506062043 51 230 3.5 4.3 0.00 0.03 0.00 94 1014.0
20260506061535 51 254 2.6 2.6 0.00 0.03 0.00 94 1014.0
20260506060538 51 261 3.5 5.2 0.00 0.03 0.00 94 1014.0
20260506044244 49 248 3.5 4.3 0.00 0.03 0.00 94 1014.0
20260506043739 49 248 4.3 5.2 0.00 0.03 0.00 94 1014.0
20260506041739 49 257 4.3 5.2 0.00 0.03 0.00 95 1014.0
20260506040240 48 260 6.1 7.0 0.00 0.03 0.00 94 1014.0
20260506035741 48 252 4.3 4.3 0.00 0.03 0.00 94 1014.0
20260506034741 48 260 4.3 5.2 0.00 0.03 0.00 94 1014.0
20260506033739 48 252 3.5 3.5 0.00 0.03 0.00 94 1014.0
20260506033245 48 258 4.3 5.2 0.00 0.03 0.00 94 1014.0
20260506030742 49 264 3.5 6.1 0.00 0.03 0.00 94 1014.0
20260506024742 49 253 3.5 2.6 0.00 0.03 0.00 93 1014.0
20260506022742 49 254 4.3 5.2 0.00 0.03 0.00 93 1014.0
20260506022239 49 252 3.5 5.2 0.00 0.03 0.00 93 1014.0
20260506021244 49 263 5.2 6.1 0.00 0.03 0.00 93 1014.0
20260506013740 50 256 5.2 8.7 0.00 0.03 0.00 92 1013.0
20260506012815 50 251 6.1 7.0 0.00 0.03 0.00 92 1013.0
20260506012741 50 251 6.1 7.0 0.00 0.03 0.00 92 1013.0
20260506012243 50 252 5.2 5.2 0.00 0.03 0.00 92 1014.0
20260506010741 50 242 4.3 5.2 0.00 0.03 0.00 92 1013.0
20260506004741 50 275 3.5 5.2 0.00 0.03 0.00 91 1014.0
20260506004242 50 271 4.3 5.2 0.00 0.03 0.00 91 1014.0
20260506003743 50 248 4.3 5.2 0.00 0.03 0.00 91 1014.0
20260506002241 50 259 3.5 4.3 0.00 0.03 0.00 91 1014.0
20260506000247 50 230 2.6 4.3 0.00 0.03 0.00 90 1014.0
20260505233817 50 266 0.9 1.7 0.00 0.03 0.00 89 1014.0
20260505233741 50 266 0.9 1.7 0.00 0.03 0.00 89 1014.0
20260505233243 50 252 1.7 1.7 0.00 0.03 0.00 89 1014.0
20260505232240 50 272 0.0 0.9 0.00 0.03 0.00 88 1014.0
20260505231740 50 260 0.0 1.7 0.00 0.03 0.00 88 1014.0
20260505230840 50 244 0.9 0.9 0.00 0.03 0.00 88 1014.0
20260505230740 50 244 0.9 0.9 0.00 0.03 0.00 88 1014.0
20260505230240 50 244 1.7 2.6 0.00 0.03 0.00 87 1014.0
20260505225840 50 244 1.7 3.5 0.00 0.03 0.00 87 1014.0
20260505225743 50 244 1.7 3.5 0.00 0.03 0.00 87 1014.0
20260505224241 50 263 1.7 1.7 0.00 0.03 0.00 86 1014.0
20260505223826 50 255 2.6 4.3 0.00 0.03 0.00 86 1014.0
20260505223740 50 255 2.6 4.3 0.00 0.03 0.00 86 1014.0
20260505221625 50 239 3.5 3.5 0.00 0.03 0.00 85 1014.0
20260505221243 50 239 3.5 3.5 0.00 0.03 0.00 85 1014.0
20260505220739 50 259 2.6 4.3 0.00 0.03 0.00 84 1014.0
20260505220238 50 251 3.5 3.5 0.00 0.03 0.00 84 1014.0
20260505215817 50 251 4.3 5.2 0.00 0.03 0.03 84 1014.0
20260505215740 50 251 4.3 5.2 0.00 0.03 0.03 84 1014.0
20260505214238 51 213 2.6 3.5 0.00 0.03 0.03 83 1014.0
20260505213738 51 239 3.5 5.2 0.00 0.03 0.03 82 1014.0
20260505213239 51 252 3.5 5.2 0.00 0.03 0.03 82 1014.0
20260505212737 51 248 3.5 4.3 0.00 0.03 0.03 81 1014.0
20260505212240 51 248 4.3 5.2 0.00 0.03 0.03 81 1015.0
20260505211238 51 251 1.7 3.5 0.00 0.03 0.03 80 1015.0
20260505210844 52 252 2.6 3.5 0.00 0.03 0.03 79 1015.0
20260505210739 52 252 2.6 3.5 0.00 0.03 0.03 79 1015.0
20260505210237 52 255 4.3 4.3 0.00 0.03 0.03 79 1015.0
20260505205819 52 252 3.5 3.5 0.00 0.03 0.03 78 1015.0
20260505205739 52 252 3.5 3.5 0.00 0.03 0.03 78 1015.0
20260505204240 53 244 2.6 2.6 0.00 0.03 0.03 76 1014.0
20260505203740 53 248 2.6 3.5 0.00 0.03 0.03 76 1014.0
20260505203239 53 248 3.5 4.3 0.00 0.03 0.03 76 1014.0
20260505202239 53 253 5.2 7.8 0.00 0.03 0.03 75 1014.0
20260505201739 53 248 3.5 5.2 0.00 0.03 0.03 75 1014.0
20260505200741 54 247 3.5 4.3 0.00 0.03 0.03 74 1014.0
20260505195739 54 253 3.5 5.2 0.00 0.03 0.03 74 1014.0
20260505195239 54 254 3.5 3.5 0.00 0.03 0.03 74 1014.0
20260505194738 55 261 3.5 3.5 0.00 0.03 0.03 74 1014.0
20260505194240 55 248 4.3 5.2 0.00 0.03 0.03 73 1014.0
20260505193741 55 256 3.5 5.2 0.00 0.03 0.03 73 1014.0
20260505192237 55 248 3.5 5.2 0.00 0.03 0.03 73 1014.0
20260505191740 55 248 2.6 2.6 0.00 0.03 0.03 72 1014.0
20260505183239 58 312 2.6 2.6 0.00 0.03 0.03 67 1014.0
20260505182742 58 282 2.6 3.5 0.00 0.03 0.03 67 1014.0
20260505180739 58 317 3.5 3.5 0.00 0.03 0.03 65 1014.0
20260505175238 58 249 3.5 5.2 0.00 0.03 0.03 64 1014.0
20260505174738 58 258 5.2 5.2 0.00 0.03 0.03 64 1014.0
20260505174238 59 248 5.2 5.2 0.00 0.03 0.03 64 1014.0
20260505173739 59 262 7.0 8.7 0.00 0.08 0.03 62 1014.0
20260505173237 59 261 5.2 5.2 0.00 0.08 0.03 62 1014.0
20260505172740 60 256 2.6 4.3 0.00 0.08 0.03 61 1014.0
20260505172313 60 253 3.5 7.0 0.00 0.08 0.03 61 1014.0
20260505172240 60 253 3.5 7.0 0.00 0.08 0.03 61 1014.0
20260505171739 60 266 4.3 5.2 0.00 0.08 0.03 60 1014.0
20260505170738 61 260 3.5 5.2 0.00 0.08 0.03 59 1014.0
20260505170239 61 253 3.5 3.5 0.00 0.08 0.03 58 1014.0
20260505165738 61 252 4.3 7.8 0.00 0.08 0.03 58 1014.0
20260505165239 61 260 5.2 6.1 0.00 0.08 0.03 58 1014.0
20260505164738 61 266 6.1 9.6 0.00 0.08 0.03 57 1014.0
20260505164239 62 248 5.2 8.7 0.00 0.08 0.03 57 1014.0
20260505163738 63 273 5.2 7.8 0.00 0.08 0.03 59 1014.0
20260505163238 63 296 4.3 4.3 0.00 0.08 0.03 60 1014.0
20260505162738 63 248 5.2 5.2 0.00 0.08 0.03 61 1014.0
20260505162238 62 329 4.3 5.2 0.00 0.08 0.03 62 1014.0
20260505161737 61 309 3.5 4.3 0.00 0.08 0.03 63 1014.0
20260505161238 60 270 4.3 4.3 0.00 0.08 0.03 63 1014.0
20260505160738 60 258 4.3 5.2 0.00 0.08 0.03 62 1014.0
20260505160239 61 277 4.3 5.2 0.00 0.08 0.03 62 1014.0
20260505153312 61 285 7.0 9.6 0.00 0.08 0.03 60 1014.0
20260505153237 61 285 7.0 9.6 0.00 0.08 0.03 60 1014.0
20260505152737 61 276 4.3 7.0 0.00 0.08 0.03 60 1014.0
20260505152238 61 262 6.1 6.1 0.00 0.08 0.03 62 1014.0
20260505151237 61 281 6.1 8.7 0.00 0.08 0.03 64 1014.0
20260505150238 61 248 5.2 7.0 0.00 0.08 0.03 63 1013.0
20260505130240 63 247 8.7 9.6 0.03 0.16 0.03 66 1014.0
20260505124246 61 252 7.0 7.0 0.03 0.20 0.03 69 1013.0
20260505123738 61 270 8.7 7.8 0.03 0.20 0.03 71 1014.0
20260505123238 61 251 7.0 8.7 0.03 0.20 0.03 72 1014.0
20260505122737 61 270 3.5 2.6 0.00 0.17 0.00 79 1014.0
20260505122237 61 270 3.5 2.6 0.00 0.17 0.00 79 1014.0
20260505121737 61 270 3.5 2.6 0.00 0.17 0.00 79 1014.0
20260505121348 61 270 3.5 2.6 0.00 0.17 0.00 79 1014.0
20260505121239 61 270 3.5 2.6 0.00 0.17 0.00 79 1014.0
20260505120738 61 270 3.5 2.6 0.00 0.17 0.00 79 1014.0
20260505120238 61 270 3.5 2.6 0.00 0.17 0.00 79 1014.0
20260505115737 61 270 3.5 2.6 0.00 0.17 0.00 79 1014.0
20260505115238 60 251 2.6 3.5 0.00 0.17 0.00 79 1014.0